TimePST,TemperatureF,Dew PointF,Humidity,Sea Level PressureIn,VisibilityMPH,Wind Direction,Wind SpeedMPH,Gust SpeedMPH,PrecipitationIn,Events,Conditions,WindDirDegrees,DateUTC
12:55 AM,-9999,-9999,N/A,30.06,-9999.0,North,-9999.0,-,N/A,,Unknown,0,2011-11-29 08:55:00
1:55 AM,-9999,-9999,N/A,30.07,-9999.0,North,-9999.0,-,N/A,,Unknown,0,2011-11-29 09:55:00
2:55 AM,-9999,-9999,N/A,30.06,-9999.0,North,-9999.0,-,N/A,,Unknown,0,2011-11-29 10:55:00
3:55 AM,-9999,-9999,N/A,30.06,-9999.0,North,-9999.0,-,N/A,,Unknown,0,2011-11-29 11:55:00
4:55 AM,-9999,-9999,N/A,30.06,-9999.0,North,-9999.0,-,N/A,,Unknown,0,2011-11-29 12:55:00
5:55 AM,-9999,-9999,N/A,30.05,-9999.0,North,-9999.0,-,N/A,,Unknown,0,2011-11-29 13:55:00
6:55 AM,-9999,-9999,N/A,30.06,-9999.0,North,-9999.0,-,N/A,,Unknown,0,2011-11-29 14:55:00
7:55 AM,-9999,-9999,N/A,30.06,-9999.0,North,-9999.0,-,N/A,,Unknown,0,2011-11-29 15:55:00
8:55 AM,-9999,-9999,N/A,30.07,-9999.0,North,-9999.0,-,N/A,,Unknown,0,2011-11-29 16:55:00
9:55 AM,-9999,-9999,N/A,30.08,-9999.0,North,-9999.0,-,N/A,,Unknown,0,2011-11-29 17:55:00
10:55 AM,-9999,-9999,N/A,30.06,-9999.0,North,-9999.0,-,N/A,,Unknown,0,2011-11-29 18:55:00
11:55 AM,-9999,-9999,N/A,30.04,-9999.0,North,-9999.0,-,N/A,,Unknown,0,2011-11-29 19:55:00
12:55 PM,-9999,-9999,N/A,30.03,-9999.0,North,-9999.0,-,N/A,,Unknown,0,2011-11-29 20:55:00
1:55 PM,-9999,-9999,N/A,30.00,-9999.0,North,-9999.0,-,N/A,,Unknown,0,2011-11-29 21:55:00
2:55 PM,-9999,-9999,N/A,29.99,-9999.0,North,-9999.0,-,N/A,,Unknown,0,2011-11-29 22:55:00
4:55 PM,-9999,-9999,N/A,30.00,-9999.0,North,-9999.0,-,N/A,,Unknown,0,2011-11-30 00:55:00
5:55 PM,-9999,-9999,N/A,30.01,-9999.0,North,-9999.0,-,N/A,,Unknown,0,2011-11-30 01:55:00
6:55 PM,-9999,-9999,N/A,30.02,-9999.0,North,-9999.0,-,N/A,,Unknown,0,2011-11-30 02:55:00
7:55 PM,-9999,-9999,N/A,30.02,-9999.0,North,-9999.0,-,N/A,,Unknown,0,2011-11-30 03:55:00
8:55 PM,-9999,-9999,N/A,30.03,-9999.0,North,-9999.0,-,N/A,,Unknown,0,2011-11-30 04:55:00
9:55 PM,-9999,-9999,N/A,30.03,-9999.0,North,-9999.0,-,N/A,,Unknown,0,2011-11-30 05:55:00
10:55 PM,-9999,-9999,N/A,30.03,-9999.0,North,-9999.0,-,N/A,,Unknown,0,2011-11-30 06:55:00